Regional Weather Roundup
Issued by NWS

Home | Current Version | Previous Version | Graphics & Text | Print | Product List | Glossary On
Versions: 1 2 3 4 5 6 7 8 9 10 11 12 13 14 15 16 17 18 19 20 21 22 23 24 25 26 27 28 29 30 31 32 33 34 35 36 37 38 39 40 41 42 43 44 45 46 47 48 49 50
000
ASUS43 KLMK 171602
RWRKY
KENTUCKY REGIONAL WEATHER ROUNDUP
NATIONAL WEATHER SERVICE LOUISVILLE KY
1200 PM EDT TUE OCT 17 2017

NOTE "FAIR" INDICATES FEW OR NO CLOUDS BELOW 12,000 FEET
WITH NO SIGNIFICANT WEATHER AND/OR OBSTRUCTIONS TO VISIBILITY.

KYZ001>023-026-027-061>063-070>075-171700-
WESTERN AND SOUTH CENTRAL KENTUCKY

CITY           SKY/WX    TMP DP  RH WIND       PRES   REMARKS
PADUCAH        SUNNY     63  41  44 SE8       30.37F
HENDERSON      SUNNY     63  40  42 S10       30.38F
OWENSBORO      SUNNY     62  43  49 S8        30.38F
HOPKINSVILLE   SUNNY     62  39  43 SE12      30.36F
BOWLING GREEN  SUNNY     61  46  57 SE6       30.40F
GLASGOW        NOT AVBL
$$

KYZ024-025-028>034-038-045-046-053-171700-
NORTH CENTRAL KENTUCKY

CITY           SKY/WX    TMP DP  RH WIND       PRES   REMARKS
LOUISVILLE/SDF MOSUNNY   61  44  53 SE5       30.39F
LOUISVILLE/LOU SUNNY     60  44  55 S6        30.39F
FORT KNOX      SUNNY     61  40  46 S6        30.37F
$$

KYZ035>037-039>044-047>052-055>060-089>105-171700-
NORTHEAST KENTUCKY

CITY           SKY/WX    TMP DP  RH WIND       PRES   REMARKS
LEXINGTON      SUNNY     60  42  51 VRB5      30.40S
COVINGTON      MOSUNNY   60  42  51 VRB7      30.38S
FRANKFORT      SUNNY     61  40  45 MISG      30.38F
$$

KYZ054-064>069-076>088-106>120-171700-
SOUTHEAST KENTUCKY

CITY           SKY/WX    TMP DP  RH WIND       PRES   REMARKS
JACKSON        SUNNY     57  40  52 VRB3      30.40S
LONDON         SUNNY     58  38  47 SE6       30.40S
SOMERSET       NOT AVBL
MIDDLESBORO    SUNNY     47  44  88 CALM      30.41F
MONTICELLO     SUNNY     59  41  51 E9        30.41F
$$





USA.gov is the U.S. government's official web portal to all federal, state and local government web resources and services.